Location: Elstree
(51.6403°N, 0.2969°W)
Time: 01:51:59
(UTC+00:00)

Envisat - Pass Details

Date: 11 December 2022
Orbit: 763 x 765 km, 98.2° (Epoch: 08 February)

Event Time Altitude Azimuth Distance (km) Brightness Sun altitude
Rises 05:58:15 0° 6° (N) 3,248 6.1 -17.3°
Reaches altitude 10° 06:01:03 10° 350° (N) 2,317 5.2 -16.8°
Enters shadow 06:03:12 18° 328° (NNW) 1,815 4.5 -16.5°
